| time (UTC) | temp F | wind direction | speed MPH | gust MPH | rain 1hr in | rain 24hr in | rain mn in | humidity % | barometer mb |
| 20260504170127 | 77 | 248 | 10.0 | 21.0 | 0.00 | 0.00 | 0.00 | 100 | |
| 20260504160127 | 74 | 206 | 7.0 | 16.0 | 0.00 | 0.00 | 0.00 | 100 | |
| 20260504151127 | 67 | 285 | 6.0 | 11.0 | 0.00 | 0.00 | 0.00 | 100 | |
| 20260504150628 | 66 | 244 | 5.0 | 13.0 | 0.00 | 0.00 | 0.00 | 100 | |
| 20260504150127 | 66 | 213 | 7.0 | 15.0 | 0.00 | 0.00 | 0.00 | 100 | |
| 20260504141129 | 71 | 222 | 7.0 | 12.0 | 0.00 | 0.00 | 0.00 | 100 | |
| 20260504140627 | 70 | 286 | 7.0 | 15.0 | 0.00 | 0.00 | 0.00 | 100 | |
| 20260504140127 | 71 | 225 | 8.0 | 16.0 | 0.00 | 0.00 | 0.00 | 100 | |
| 20260504130627 | 68 | 203 | 6.0 | 10.0 | 0.00 | 0.00 | 0.00 | 100 | |
| 20260504130127 | 69 | 202 | 1.0 | 9.0 | 0.00 | 0.00 | 0.00 | 100 | |
| 20260504120318 | 60 | 199 | 7.0 | 11.0 | 0.00 | 0.02 | 0.00 | 100 | |
| 20260504110318 | 49 | 170 | 4.0 | 12.0 | 0.00 | 0.02 | 0.00 | 100 | |
| 20260504100318 | 47 | 234 | 5.0 | 9.0 | 0.00 | 0.02 | 0.00 | 100 | |
| 20260504081818 | 48 | 227 | 6.0 | 9.0 | 0.00 | 0.02 | 0.00 | 100 | |
| 20260504081318 | 49 | 225 | 3.0 | 13.0 | 0.00 | 0.02 | 0.00 | 100 | |
| 20260504080818 | 49 | 210 | 8.0 | 11.0 | 0.00 | 0.02 | 0.00 | 100 | |
| 20260504080318 | 49 | 250 | 4.0 | 10.0 | 0.00 | 0.02 | 0.00 | 100 | |
| 20260504070318 | 49 | 239 | 5.0 | 7.0 | 0.00 | 0.02 | 0.00 | 100 | |
| 20260504050319 | 51 | 222 | 2.0 | 8.0 | 0.00 | 0.02 | 0.00 | 100 | |
| 20260504045819 | 51 | 243 | 2.0 | 9.0 | 0.00 | 0.02 | 0.00 | 100 | |
| 20260504045319 | 51 | 205 | 1.0 | 8.0 | 0.00 | 0.02 | 0.00 | 100 | |
| 20260504044819 | 51 | 196 | 6.0 | 7.0 | 0.00 | 0.02 | 0.00 | 100 | |
| 20260504044319 | 51 | 161 | 1.0 | 6.0 | 0.00 | 0.02 | 0.00 | 100 | |
| 20260504043819 | 51 | 226 | 3.0 | 9.0 | 0.00 | 0.02 | 0.00 | 100 | |
| 20260504043319 | 51 | 196 | 4.0 | 10.0 | 0.00 | 0.02 | 0.00 | 100 | |
| 20260504042819 | 51 | 142 | 6.0 | 6.0 | 0.00 | 0.02 | 0.00 | 100 | |
| 20260504042319 | 51 | 227 | 3.0 | 7.0 | 0.00 | 0.02 | 0.00 | 100 | |
| 20260504041822 | 51 | 174 | 4.0 | 11.0 | 0.00 | 0.02 | 0.00 | 100 | |
| 20260504041321 | 51 | 220 | 4.0 | 8.0 | 0.00 | 0.02 | 0.00 | 100 | |
| 20260504040819 | 51 | 205 | 6.0 | 9.0 | 0.00 | 0.02 | 0.00 | 100 | |
| 20260504040319 | 51 | 202 | 5.0 | 9.0 | 0.00 | 0.02 | 0.00 | 100 | |
| 20260504035819 | 51 | 209 | 5.0 | 10.0 | 0.00 | 0.02 | 0.02 | 100 | |
| 20260504035319 | 51 | 232 | 4.0 | 9.0 | 0.00 | 0.02 | 0.02 | 100 | |
| 20260504034819 | 51 | 185 | 4.0 | 12.0 | 0.00 | 0.02 | 0.02 | 100 | |
| 20260504034319 | 51 | 174 | 5.0 | 9.0 | 0.00 | 0.02 | 0.02 | 100 | |
| 20260504033819 | 51 | 192 | 7.0 | 9.0 | 0.00 | 0.02 | 0.02 | 100 | |
| 20260504033319 | 50 | 153 | 7.0 | 8.0 | 0.00 | 0.02 | 0.02 | 100 | |
| 20260504032819 | 50 | 180 | 0.0 | 6.0 | 0.00 | 0.02 | 0.02 | 100 | |
| 20260504032319 | 50 | 198 | 0.0 | 5.0 | 0.00 | 0.02 | 0.02 | 100 | |
| 20260504031820 | 50 | 120 | 0.0 | 7.0 | 0.00 | 0.02 | 0.02 | 100 | |
| 20260504031319 | 50 | 244 | 0.0 | 7.0 | 0.00 | 0.02 | 0.02 | 100 | |
| 20260504030819 | 50 | 165 | 2.0 | 8.0 | 0.00 | 0.02 | 0.02 | 100 | |
| 20260504030319 | 50 | 192 | 5.0 | 9.0 | 0.00 | 0.02 | 0.02 | 100 | |
| 20260504025819 | 50 | 192 | 2.0 | 7.0 | 0.00 | 0.02 | 0.02 | 100 | |
| 20260504025320 | 50 | 181 | 4.0 | 7.0 | 0.00 | 0.02 | 0.02 | 100 | |
| 20260504024820 | 50 | 225 | 4.0 | 9.0 | 0.00 | 0.02 | 0.02 | 100 | |
| 20260504024319 | 50 | 230 | 2.0 | 8.0 | 0.00 | 0.02 | 0.02 | 100 | |
| 20260504023819 | 50 | 178 | 3.0 | 8.0 | 0.00 | 0.02 | 0.02 | 100 | |
| 20260504023319 | 49 | 209 | 3.0 | 10.0 | 0.00 | 0.02 | 0.02 | 100 | |
| 20260504022819 | 49 | 205 | 8.0 | 8.0 | 0.00 | 0.02 | 0.02 | 100 | |
| 20260504022319 | 49 | 222 | 2.0 | 6.0 | 0.00 | 0.02 | 0.02 | 100 | |
| 20260504021819 | 49 | 199 | 4.0 | 7.0 | 0.00 | 0.02 | 0.02 | 100 | |
| 20260504021324 | 49 | 196 | 4.0 | 8.0 | 0.00 | 0.02 | 0.02 | 100 | |
| 20260504020819 | 49 | 230 | 5.0 | 9.0 | 0.00 | 0.02 | 0.02 | 100 | |
| 20260504020319 | 49 | 196 | 3.0 | 8.0 | 0.00 | 0.02 | 0.02 | 100 | |
| 20260504015819 | 49 | 178 | 6.0 | 8.0 | 0.00 | 0.02 | 0.02 | 100 | |
| 20260504015319 | 49 | 220 | 6.0 | 8.0 | 0.00 | 0.02 | 0.02 | 100 | |
| 20260504014819 | 49 | 174 | 5.0 | 10.0 | 0.00 | 0.02 | 0.02 | 100 | |
| 20260504014320 | 48 | 174 | 3.0 | 9.0 | 0.00 | 0.02 | 0.02 | 100 | |
| 20260504013820 | 48 | 227 | 3.0 | 5.0 | 0.00 | 0.02 | 0.02 | 100 | |
| 20260504013319 | 48 | 209 | 1.0 | 6.0 | 0.00 | 0.02 | 0.02 | 100 | |
| 20260504012819 | 48 | 185 | 2.0 | 6.0 | 0.00 | 0.02 | 0.02 | 100 | |
| 20260504012320 | 48 | 180 | 4.0 | 7.0 | 0.00 | 0.02 | 0.02 | 100 | |
| 20260504011825 | 48 | 267 | 4.0 | 5.0 | 0.00 | 0.02 | 0.02 | 100 | |
| 20260504011320 | 48 | 140 | 3.0 | 5.0 | 0.00 | 0.02 | 0.02 | 100 | |
| 20260504010819 | 48 | 271 | 1.0 | 5.0 | 0.00 | 0.02 | 0.02 | 100 | |
| 20260504010319 | 48 | 246 | 0.0 | 6.0 | 0.00 | 0.02 | 0.02 | 100 | |
| 20260504005819 | 48 | 220 | 0.0 | 4.0 | 0.00 | 0.02 | 0.02 | 100 | |
| 20260504005319 | 48 | 150 | 1.0 | 6.0 | 0.00 | 0.02 | 0.02 | 100 | |
| 20260504004822 | 48 | 192 | 3.0 | 6.0 | 0.00 | 0.02 | 0.02 | 100 | |
| 20260504004319 | 48 | 206 | 2.0 | 7.0 | 0.00 | 0.02 | 0.02 | 100 | |
| 20260504003823 | 48 | 198 | 6.0 | 8.0 | 0.00 | 0.02 | 0.02 | 100 | |
| 20260504003319 | 48 | 201 | 3.0 | 7.0 | 0.00 | 0.02 | 0.02 | 100 | |
| 20260504002819 | 48 | 229 | 6.0 | 8.0 | 0.00 | 0.02 | 0.02 | 100 | |
| 20260504002322 | 48 | 150 | 2.0 | 6.0 | 0.00 | 0.02 | 0.02 | 100 | |
| 20260504001819 | 48 | 105 | 0.0 | 6.0 | 0.00 | 0.02 | 0.02 | 100 | |
| 20260504001321 | 48 | 215 | 4.0 | 5.0 | 0.00 | 0.02 | 0.02 | 100 | |
| 20260504000819 | 48 | 111 | 1.0 | 7.0 | 0.00 | 0.02 | 0.02 | 100 | |
| 20260504000319 | 48 | 157 | 1.0 | 5.0 | 0.00 | 0.02 | 0.02 | 100 | |
| 20260503235819 | 48 | 130 | 0.0 | 5.0 | 0.00 | 0.02 | 0.02 | 100 | |
| 20260503235319 | 48 | 109 | 0.0 | 5.0 | 0.00 | 0.02 | 0.02 | 100 | |
| 20260503234824 | 48 | 191 | 3.0 | 6.0 | 0.00 | 0.02 | 0.02 | 100 | |
| 20260503234319 | 48 | 180 | 2.0 | 7.0 | 0.00 | 0.02 | 0.02 | 100 | |
| 20260503233819 | 48 | 106 | 3.0 | 7.0 | 0.00 | 0.02 | 0.02 | 100 | |
| 20260503233320 | 48 | 112 | 4.0 | 4.0 | 0.00 | 0.02 | 0.02 | 100 | |
| 20260503232820 | 48 | 132 | 1.0 | 6.0 | 0.00 | 0.02 | 0.02 | 100 | |
| 20260503232319 | 48 | 104 | 6.0 | 6.0 | 0.00 | 0.02 | 0.02 | 100 | |
| 20260503231819 | 47 | 123 | 3.0 | 8.0 | 0.00 | 0.02 | 0.02 | 100 | |
| 20260503231319 | 47 | 160 | 2.0 | 7.0 | 0.00 | 0.02 | 0.02 | 100 | |
| 20260503230819 | 48 | 130 | 2.0 | 5.0 | 0.01 | 0.02 | 0.02 | 100 | |
| 20260503230320 | 48 | 157 | 1.0 | 6.0 | 0.01 | 0.02 | 0.02 | 100 | |
| 20260503225819 | 48 | 123 | 4.0 | 7.0 | 0.02 | 0.02 | 0.02 | 100 | |
| 20260503225319 | 48 | 90 | 3.0 | 4.0 | 0.02 | 0.02 | 0.02 | 100 | |
| 20260503224820 | 48 | 199 | 3.0 | 5.0 | 0.02 | 0.02 | 0.02 | 100 | |
| 20260503224319 | 47 | 118 | 2.0 | 5.0 | 0.02 | 0.02 | 0.02 | 100 | |
| 20260503223819 | 47 | 130 | 3.0 | 5.0 | 0.02 | 0.02 | 0.02 | 100 | |
| 20260503223321 | 46 | 102 | 2.0 | 7.0 | 0.02 | 0.02 | 0.02 | 100 | |
| 20260503222819 | 46 | 68 | 3.0 | 5.0 | 0.02 | 0.02 | 0.02 | 100 | |
| 20260503222320 | 46 | 137 | 4.0 | 6.0 | 0.02 | 0.02 | 0.02 | 100 | |
| 20260503221819 | 46 | 161 | 3.0 | 5.0 | 0.02 | 0.02 | 0.02 | 100 | |
| 20260503221319 | 46 | 177 | 4.0 | 5.0 | 0.02 | 0.02 | 0.02 | 100 | |
| 20260503220819 | 46 | 244 | 4.0 | 7.0 | 0.01 | 0.01 | 0.01 | 100 | |
| 20260503220319 | 47 | 248 | 4.0 | 10.0 | 0.01 | 0.01 | 0.01 | 100 | |
| 20260503215819 | 47 | 264 | 6.0 | 16.0 | 0.00 | 0.00 | 0.00 | 100 | |
| 20260503215319 | 47 | 261 | 11.0 | 14.0 | 0.00 | 0.00 | 0.00 | 100 | |
| 20260503214819 | 48 | 277 | 7.0 | 17.0 | 0.00 | 0.00 | 0.00 | 100 | |
| 20260503214319 | 50 | 324 | 14.0 | 20.0 | 0.00 | 0.00 | 0.00 | 100 | |
| 20260503213823 | 51 | 247 | 15.0 | 23.0 | 0.00 | 0.00 | 0.00 | 100 | |
| 20260503213319 | 51 | 240 | 15.0 | 26.0 | 0.00 | 0.00 | 0.00 | 100 | |
| 20260503212819 | 52 | 284 | 14.0 | 26.0 | 0.00 | 0.00 | 0.00 | 100 | |
| 20260503212319 | 52 | 257 | 17.0 | 28.0 | 0.00 | 0.00 | 0.00 | 100 | |
| 20260503211819 | 54 | 312 | 8.0 | 27.0 | 0.00 | 0.00 | 0.00 | 100 | |
| 20260503211319 | 54 | 233 | 12.0 | 33.0 | 0.00 | 0.00 | 0.00 | 100 | |
| 20260503210819 | 55 | 267 | 24.0 | 30.0 | 0.00 | 0.00 | 0.00 | 100 | |
| 20260503210319 | 58 | 239 | 20.0 | 22.0 | 0.00 | 0.00 | 0.00 | 100 | |
| 20260503205819 | 60 | 227 | 12.0 | 22.0 | 0.00 | 0.00 | 0.00 | 100 | |
| 20260503205320 | 61 | 278 | 8.0 | 17.0 | 0.00 | 0.00 | 0.00 | 100 | |
| 20260503204820 | 61 | 255 | 9.0 | 16.0 | 0.00 | 0.00 | 0.00 | 100 | |
| 20260503204321 | 60 | 254 | 11.0 | 22.0 | 0.00 | 0.00 | 0.00 | 100 | |
| 20260503203820 | 60 | 264 | 15.0 | 21.0 | 0.00 | 0.00 | 0.00 | 100 | |
| 20260503203320 | 60 | 234 | 10.0 | 25.0 | 0.00 | 0.00 | 0.00 | 100 | |
| 20260503202820 | 61 | 258 | 10.0 | 22.0 | 0.00 | 0.00 | 0.00 | 100 | |
| 20260503202320 | 61 | 255 | 8.0 | 21.0 | 0.00 | 0.00 | 0.00 | 100 | |
| 20260503201820 | 61 | 272 | 14.0 | 22.0 | 0.00 | 0.00 | 0.00 | 100 | |
| 20260503201320 | 63 | 192 | 11.0 | 18.0 | 0.00 | 0.00 | 0.00 | 100 | |
| 20260503200820 | 62 | 230 | 5.0 | 15.0 | 0.00 | 0.00 | 0.00 | 100 | |
| 20260503200320 | 63 | 250 | 9.0 | 18.0 | 0.00 | 0.00 | 0.00 | 100 | |
| 20260503195820 | 63 | 250 | 16.0 | 18.0 | 0.00 | 0.00 | 0.00 | 100 | |
| 20260503195320 | 65 | 281 | 11.0 | 16.0 | 0.00 | 0.00 | 0.00 | 100 | |
| 20260503194820 | 65 | 243 | 11.0 | 19.0 | 0.00 | 0.00 | 0.00 | 100 | |
| 20260503194320 | 63 | 230 | 8.0 | 17.0 | 0.00 | 0.00 | 0.00 | 100 | |
| 20260503193820 | 65 | 267 | 12.0 | 12.0 | 0.00 | 0.00 | 0.00 | 100 | |
| 20260503193320 | 64 | 262 | 6.0 | 16.0 | 0.00 | 0.00 | 0.00 | 100 | |
| 20260503192820 | 63 | 209 | 15.0 | 21.0 | 0.00 | 0.00 | 0.00 | 100 | |
| 20260503192320 | 63 | 241 | 13.0 | 19.0 | 0.00 | 0.00 | 0.00 | 100 | |
| 20260503191820 | 65 | 299 | 11.0 | 16.0 | 0.00 | 0.00 | 0.00 | 100 | |
| 20260503191320 | 65 | 261 | 11.0 | 15.0 | 0.00 | 0.00 | 0.00 | 100 | |
| 20260503190820 | 64 | 247 | 8.0 | 18.0 | 0.00 | 0.00 | 0.00 | 100 | |
| 20260503190320 | 65 | 285 | 7.0 | 24.0 | 0.00 | 0.00 | 0.00 | 100 | |
| 20260503185820 | 65 | 270 | 12.0 | 15.0 | 0.00 | 0.00 | 0.00 | 100 | |
| 20260503185320 | 65 | 236 | 8.0 | 15.0 | 0.00 | 0.00 | 0.00 | 100 | |
| 20260503184820 | 66 | 210 | 5.0 | 25.0 | 0.00 | 0.00 | 0.00 | 100 | |
| 20260503184320 | 66 | 219 | 7.0 | 18.0 | 0.00 | 0.00 | 0.00 | 100 | |
| 20260503183820 | 63 | 248 | 12.0 | 18.0 | 0.00 | 0.00 | 0.00 | 100 | |
| 20260503183320 | 63 | 260 | 9.0 | 22.0 | 0.00 | 0.00 | 0.00 | 100 | |
| 20260503182820 | 64 | 264 | 14.0 | 21.0 | 0.00 | 0.00 | 0.00 | 100 | |
| 20260503182320 | 65 | 247 | 13.0 | 18.0 | 0.00 | 0.00 | 0.00 | 100 | |
| 20260503181820 | 64 | 285 | 11.0 | 19.0 | 0.00 | 0.00 | 0.00 | 100 | |
| 20260503181320 | 63 | 237 | 10.0 | 17.0 | 0.00 | 0.00 | 0.00 | 100 | |
| 20260503180820 | 64 | 201 | 8.0 | 16.0 | 0.00 | 0.00 | 0.00 | 100 | |
| 20260503180320 | 64 | 254 | 9.0 | 19.0 | 0.00 | 0.00 | 0.00 | 100 | |
| 20260503175820 | 63 | 271 | 11.0 | 17.0 | 0.00 | 0.00 | 0.00 | 100 | |
| 20260503175320 | 62 | 253 | 7.0 | 18.0 | 0.00 | 0.00 | 0.00 | 100 | |
| 20260503174820 | 65 | 229 | 11.0 | 19.0 | 0.00 | 0.00 | 0.00 | 100 | |
| 20260503174320 | 64 | 250 | 11.0 | 16.0 | 0.00 | 0.00 | 0.00 | 100 | |
| 20260503173820 | 64 | 215 | 14.0 | 21.0 | 0.00 | 0.00 | 0.00 | 100 | |
| 20260503173320 | 63 | 229 | 13.0 | 21.0 | 0.00 | 0.00 | 0.00 | 100 | |
| 20260503172821 | 63 | 261 | 9.0 | 16.0 | 0.00 | 0.00 | 0.00 | 100 | |
| 20260503172320 | 66 | 247 | 11.0 | 17.0 | 0.00 | 0.00 | 0.00 | 100 | |
| 20260503171820 | 66 | 257 | 12.0 | 13.0 | 0.00 | 0.00 | 0.00 | 100 | |
| 20260503171320 | 64 | 274 | 8.0 | 22.0 | 0.00 | 0.00 | 0.00 | 100 | |
| 20260503170820 | 64 | 282 | 13.0 | 18.0 | 0.00 | 0.00 | 0.00 | 100 |